Location: Costa Mesa
(33.6411°N, 117.9187°W)
Time: 02:14:33
(UTC+00:00)

CZ-2C R/B - Pass Details

Date: 10 September 2024
Orbit: 664 x 778 km, 98.4° (Epoch: 10 October)

Event Time Altitude Azimuth Distance (km) Brightness Sun altitude
Rises 12:42:42 0° 350° (N) 3,146 5.7 -11.0°
Reaches altitude 10° 12:46:01 10° 326° (NNW) 2,195 4.7 -10.3°
Maximum altitude 12:48:30 14° 295° (WNW) 1,899 4.1 -9.8°
Enters shadow 12:50:25 11° 269° (W) 2,056 4.1 -9.4°
